Location: DarkSkies Observatory
(42.5924°N, 71.9747°W)
Time: 00:15:14
(UTC-05:00)

Envisat - Visible Passes

Search period start: 20 January 2018 00:00
Search period end: 30 January 2018 00:00
Orbit: 764 x 766 km, 98.2° (Epoch: 19 January)

Date Brightness Start Highest point End Pass type
(mag) Time Alt. Az. Time Alt. Az. Time Alt. Az.
20 Jan 4.1 18:48:34 27° NNE 18:48:34 27° NNE 18:51:10 10° N visible
20 Jan 5.6 20:28:45 14° NW 20:28:45 14° NW 20:29:40 10° NW visible
21 Jan 4.4 18:11:10 19° NE 18:11:10 19° NE 18:13:41 10° NNE visible
21 Jan 4.7 19:51:21 26° NW 19:51:21 26° NW 19:53:37 10° NNW visible
22 Jan 3.9 19:13:57 36° N 19:13:57 36° N 19:16:59 10° N visible
23 Jan 3.9 18:36:31 30° NE 18:36:31 30° NE 18:39:53 10° N visible
23 Jan 5.2 20:16:42 21° NW 20:16:42 21° NW 20:18:50 10° NW visible
24 Jan 4.4 17:59:05 17° ENE 17:59:05 17° ENE 18:02:08 10° NNE visible
24 Jan 4.0 19:39:17 40° NNW 19:39:17 40° NNW 19:42:33 10° NNW visible
25 Jan 3.3 19:01:50 47° NNE 19:01:50 47° NNE 19:05:47 10° N visible
25 Jan 5.7 20:42:01 15° WNW 20:42:01 15° WNW 20:43:33 10° NW visible
26 Jan 3.9 18:24:23 27° ENE 18:24:23 27° ENE 18:28:32 10° N visible
26 Jan 4.6 20:04:35 32° WNW 20:04:35 32° WNW 20:07:54 10° NNW visible
27 Jan 4.6 17:46:56 13° ENE 17:48:03 13° ENE 17:50:24 10° NNE visible
27 Jan 3.2 19:27:08 65° NNW 19:27:08 65° NNW 19:31:28 10° NNW visible
28 Jan 3.2 18:49:40 45° ENE 18:49:43 45° ENE 18:54:33 10° N visible
28 Jan 5.2 20:29:51 21° WNW 20:29:51 21° WNW 20:32:52 10° NW visible
29 Jan 4.1 18:12:12 20° E 18:13:18 22° ENE 18:17:08 10° NNE visible
29 Jan 3.9 19:52:22 47° W 19:52:22 47° W 19:56:54 10° NNW visible
